Showing default

KUIPER-00183, 67138

Orbit data source: Space-Track

KUIPER-00183, 67138 is a payload satellite owned by Kuiper Systems (US) in LEO that was launched on Mon, 15 Dec 2025 UTC via an ATLAS V 551 launch vehicle from the Air Force Eastern Test Range (AFETR). Payload-class satellites include a variety of spacecraft equipped with specific instruments for various scientific and technological missions. These include communications satellites like Starlink; space stations such as the ISS; scientific satellites like the Hubble; Earth observation satellites from companies like Planet Labs, Umbra, and HawkEye 360; GPS; miniature CubeSats for education and research; and military/defense satellites.

Loading next visibility...
Identifier
67138, 2025-301F
Orbit
LEO
Country
Flag of USUS
Related business
Manufacturer
Kuiper Systems
Mission
Operational Commercial Communications
Bus & Motor
KUIPER, Unknown motor
Mass
~490 kg wet, ~490 kg dry
Launch date (UTC)
2025-12-15 (6 months ago)
Launch vehicle
ATLAS V 551
Launch site
Air Force Eastern Test Range (AFETR)
Object type
Payload
Rocket body
Debris
Shape & HBR
Box + 2 Pan, 3.4 m
Radar Cross Section
2.326 m², Large (>1 m²)

Expand to show TLE details & history
Last TLE update: 17 hours ago

TLE from 17 hours ago
0 KUIPER-00183
1 67138U 25301F   26171.14845045  .00003758  00000-0  38388-3 0  9990
2 67138  51.8962 319.5887 0009680  48.3299 311.8496 14.92718450 29258
Epoch: 2026-06-20T03:33Z
TLE epoch observation values (Epoch: 2026-06-20T03:33:46.118Z)
Latitude
-0.00004°
Longitude
-2.22072°
Altitude
585.718 km
Speed
7.571 km/s
True Right ascension
21h 18m 21s
True Declination
0° 00' 00"
Sunlit
Object was in full shadow at epoch
Visualization orbit readout
Latitude
Unknown
Longitude
Unknown
Altitude
Unknown
Speed
Unknown
Apparent Right ascension
Unknown
Apparent Declination
Unknown
Sunlit
N/A
Visualization observer readout
Local Sidereal Time
07:16:55
Azimuth
Unknown
Elevation
Unknown
Doppler factor
Unknown
Orbital elements
Apogee altitude
596.663 km
Perigee altitude
583.173 km
Semi-major axis
6,968.055 km
Eccentricity
0.00097
Inclination
51.8962°
RAAN
319.5887°
Arg. of periapsis
48.3299°
True anomaly
311.76691°
Mean anomaly
311.8496°
Eccentric anomaly
311.80826°
Mean motion
3.73143 °/min
Orbital period
96.48 mins
BSTAR
0.00038388
Loading maneuver chart data...
Computing Atmospheric mass density...
Loading historical data...
Loading historical data...
Loading historical data...
Loading historical data...
Loading historical data...
Loading historical data...
Loading historical data...

Documentation

Showing up to 5 results
|